Location: Olmeneta
(45.2333°N, 10.0167°E)
Time: 14:23:41
(UTC+00:00)

Cosmos 1486 Rocket - Pass Details

Date: 03 March 2021
Orbit: 758 x 784 km, 74.1° (Epoch: 11 April)

Event Time Altitude Azimuth Distance (km) Brightness Sun altitude
Rises 17:52:37 0° 339° (NNW) 3,255 7.5 -8.3°
Reaches altitude 10° 17:55:00 10° 340° (NNW) 2,328 6.8 -8.7°
Maximum altitude 18:00:19 83° 69° (ENE) 789 4.0 -9.7°
Drops below altitude 10° 18:05:37 10° 158° (SSE) 2,328 6.3 -10.6°
Sets 18:07:59 0° 159° (SSE) 3,254 7.0 -11.0°
